| time (UTC) | temp F | wind direction | speed MPH | gust MPH | rain 1hr in | rain 24hr in | rain mn in | humidity % | barometer mb |
| 20260504140505 | 64 | 206 | 5.0 | 8.0 | 0.00 | 0.00 | 0.00 | 100 | 1004.2 |
| 20260504081504 | 45 | 177 | 0.0 | 2.0 | 0.00 | 0.01 | 0.00 | 100 | 1006.8 |
| 20260504081004 | 45 | 177 | 1.0 | 1.0 | 0.00 | 0.01 | 0.00 | 100 | 1006.8 |
| 20260504050504 | 53 | 186 | 0.0 | 1.0 | 0.00 | 0.01 | 0.00 | 100 | 1008.6 |
| 20260504045504 | 53 | 186 | 2.0 | 3.0 | 0.00 | 0.01 | 0.01 | 100 | 1008.7 |
| 20260504042503 | 55 | 217 | 2.0 | 2.0 | 0.00 | 0.01 | 0.01 | 100 | 1008.8 |
| 20260504042004 | 55 | 217 | 1.0 | 2.0 | 0.00 | 0.01 | 0.01 | 100 | 1008.7 |
| 20260504040506 | 56 | 251 | 1.0 | 1.0 | 0.00 | 0.01 | 0.01 | 100 | 1008.8 |
| 20260504040006 | 56 | 251 | 2.0 | 3.0 | 0.00 | 0.01 | 0.01 | 100 | 1008.9 |
| 20260504035506 | 57 | 223 | 2.0 | 2.0 | 0.00 | 0.01 | 0.01 | 100 | 1009.0 |
| 20260504035006 | 57 | 284 | 1.0 | 2.0 | 0.00 | 0.01 | 0.01 | 100 | 1009.1 |
| 20260504034006 | 57 | 277 | 1.0 | 2.0 | 0.00 | 0.01 | 0.01 | 100 | 1009.1 |
| 20260504032005 | 60 | 220 | 3.0 | 6.0 | 0.00 | 0.01 | 0.01 | 100 | 1009.2 |
| 20260504031006 | 61 | 282 | 2.0 | 3.0 | 0.00 | 0.01 | 0.01 | 100 | 1009.0 |
| 20260504030506 | 62 | 280 | 2.0 | 2.0 | 0.00 | 0.01 | 0.01 | 100 | 1009.0 |
| 20260504030005 | 62 | 288 | 1.0 | 2.0 | 0.00 | 0.01 | 0.01 | 100 | 1008.9 |
| 20260504024505 | 63 | 291 | 2.0 | 3.0 | 0.00 | 0.01 | 0.01 | 100 | 1008.7 |
| 20260504024005 | 63 | 285 | 2.0 | 2.0 | 0.00 | 0.01 | 0.01 | 100 | 1008.7 |
| 20260504023505 | 63 | 269 | 3.0 | 3.0 | 0.00 | 0.01 | 0.01 | 100 | 1008.8 |
| 20260504022505 | 64 | 301 | 3.0 | 5.0 | 0.00 | 0.01 | 0.01 | 100 | 1008.6 |
| 20260504021505 | 64 | 306 | 4.0 | 7.0 | 0.00 | 0.01 | 0.01 | 100 | 1008.5 |
| 20260504015505 | 66 | 274 | 5.0 | 7.0 | 0.00 | 0.01 | 0.01 | 100 | 1008.4 |
| 20260504015005 | 66 | 277 | 6.0 | 7.0 | 0.00 | 0.01 | 0.01 | 100 | 1008.3 |
| 20260504014505 | 66 | 272 | 5.0 | 7.0 | 0.00 | 0.01 | 0.01 | 100 | 1008.4 |
| 20260504014005 | 67 | 267 | 5.0 | 7.0 | 0.00 | 0.01 | 0.01 | 100 | 1008.3 |
| 20260504012505 | 68 | 265 | 5.0 | 7.0 | 0.00 | 0.01 | 0.01 | 100 | 1008.1 |
| 20260504011506 | 69 | 262 | 6.0 | 8.0 | 0.00 | 0.01 | 0.01 | 100 | 1008.0 |
| 20260504011005 | 69 | 266 | 7.0 | 9.0 | 0.00 | 0.01 | 0.01 | 100 | 1007.9 |
| 20260504010505 | 70 | 271 | 7.0 | 9.0 | 0.00 | 0.01 | 0.01 | 100 | 1007.8 |
| 20260504010005 | 70 | 262 | 7.0 | 9.0 | 0.00 | 0.01 | 0.01 | 100 | 1007.8 |
| 20260504005505 | 71 | 273 | 8.0 | 10.0 | 0.00 | 0.01 | 0.01 | 100 | 1007.8 |
| 20260504004505 | 71 | 266 | 7.0 | 10.0 | 0.00 | 0.01 | 0.01 | 100 | 1007.8 |
| 20260504004005 | 72 | 258 | 6.0 | 9.0 | 0.00 | 0.01 | 0.01 | 100 | 1007.6 |
| 20260504001505 | 73 | 277 | 7.0 | 12.0 | 0.00 | 0.01 | 0.01 | 100 | 1007.5 |
| 20260504001005 | 73 | 284 | 9.0 | 13.0 | 0.00 | 0.01 | 0.01 | 100 | 1007.7 |
| 20260504000506 | 74 | 293 | 10.0 | 16.0 | 0.00 | 0.01 | 0.01 | 100 | 1007.6 |
| 20260504000006 | 74 | 280 | 11.0 | 16.0 | 0.00 | 0.01 | 0.01 | 100 | 1007.6 |
| 20260503235505 | 74 | 293 | 13.0 | 17.0 | 0.00 | 0.01 | 0.01 | 100 | 1007.4 |
| 20260503233505 | 75 | 292 | 14.0 | 20.0 | 0.00 | 0.01 | 0.01 | 100 | 1007.6 |
| 20260503232505 | 75 | 267 | 14.0 | 18.0 | 0.00 | 0.01 | 0.01 | 100 | 1007.5 |
| 20260503232005 | 75 | 291 | 12.0 | 20.0 | 0.00 | 0.01 | 0.01 | 100 | 1007.5 |
| 20260503231505 | 75 | 292 | 16.0 | 22.0 | 0.00 | 0.01 | 0.01 | 100 | 1007.5 |
| 20260503231005 | 76 | 275 | 10.0 | 16.0 | 0.00 | 0.01 | 0.01 | 100 | 1007.4 |
| 20260503223006 | 76 | 261 | 11.0 | 17.0 | 0.00 | 0.01 | 0.01 | 100 | 1007.3 |
| 20260503222505 | 76 | 253 | 13.0 | 20.0 | 0.00 | 0.01 | 0.01 | 100 | 1007.2 |
| 20260503221505 | 77 | 294 | 16.0 | 21.0 | 0.00 | 0.01 | 0.01 | 100 | 1007.2 |
| 20260503221005 | 77 | 253 | 11.0 | 18.0 | 0.00 | 0.01 | 0.01 | 100 | 1007.3 |
| 20260503220005 | 76 | 283 | 9.0 | 14.0 | 0.00 | 0.01 | 0.01 | 100 | 1007.2 |
| 20260503215505 | 76 | 251 | 12.0 | 20.0 | 0.00 | 0.01 | 0.01 | 100 | 1007.1 |
| 20260503215005 | 77 | 249 | 12.0 | 20.0 | 0.00 | 0.01 | 0.01 | 100 | 1007.1 |
| 20260503213506 | 78 | 261 | 10.0 | 17.0 | 0.00 | 0.01 | 0.01 | 100 | 1007.2 |
| 20260503211505 | 77 | 261 | 14.0 | 23.0 | 0.00 | 0.01 | 0.01 | 100 | 1007.3 |
| 20260503204505 | 77 | 294 | 13.0 | 26.0 | 0.00 | 0.01 | 0.01 | 100 | 1007.6 |
| 20260503200505 | 76 | 233 | 10.0 | 17.0 | 0.00 | 0.01 | 0.01 | 100 | 1008.1 |
| 20260503195005 | 75 | 261 | 8.0 | 15.0 | 0.00 | 0.01 | 0.01 | 100 | 1008.3 |
| 20260503194004 | 75 | 241 | 10.0 | 20.0 | 0.00 | 0.01 | 0.01 | 100 | 1008.7 |
| 20260503193505 | 75 | 239 | 10.0 | 15.0 | 0.00 | 0.01 | 0.01 | 100 | 1008.6 |
| 20260503185505 | 72 | 244 | 17.0 | 22.0 | 0.00 | 0.01 | 0.01 | 100 | 1009.1 |
| 20260503182006 | 71 | 222 | 11.0 | 17.0 | 0.00 | 0.01 | 0.01 | 100 | 1009.8 |
| 20260503181505 | 70 | 216 | 6.0 | 16.0 | 0.00 | 0.01 | 0.01 | 100 | 1009.8 |
| 20260503180505 | 68 | 203 | 13.0 | 21.0 | 0.00 | 0.01 | 0.01 | 100 | 1010.0 |
| 20260503180005 | 69 | 205 | 11.0 | 20.0 | 0.00 | 0.01 | 0.01 | 100 | 1010.1 |
| 20260503175504 | 69 | 219 | 10.0 | 18.0 | 0.00 | 0.01 | 0.01 | 100 | 1010.1 |
| 20260503175005 | 68 | 230 | 12.0 | 17.0 | 0.00 | 0.01 | 0.01 | 100 | 1010.2 |
| 20260503174504 | 68 | 224 | 12.0 | 22.0 | 0.00 | 0.01 | 0.01 | 100 | 1010.3 |
| 20260503173504 | 68 | 232 | 10.0 | 15.0 | 0.00 | 0.01 | 0.01 | 100 | 1010.4 |
| 20260503172505 | 66 | 245 | 12.0 | 20.0 | 0.00 | 0.01 | 0.01 | 100 | 1010.6 |
| 20260503172005 | 66 | 212 | 10.0 | 17.0 | 0.00 | 0.01 | 0.01 | 100 | 1010.6 |
| 20260503171504 | 66 | 217 | 13.0 | 21.0 | 0.00 | 0.01 | 0.01 | 100 | 1010.6 |
| 20260503170505 | 65 | 215 | 10.0 | 22.0 | 0.00 | 0.01 | 0.01 | 100 | 1010.9 |